| time (UTC) | temp F | wind direction | speed MPH | gust MPH | rain 1hr in | rain 24hr in | rain mn in | humidity % | barometer mb |
| 20260906051558 | 50 | 325 | 6.0 | 11.0 | 0.00 | 0.00 | 0.00 | 80 | 1004.6 |
| 20260906050539 | 49 | 335 | 6.0 | 12.0 | 0.00 | 0.00 | 0.00 | 81 | 1004.5 |
| 20260906045537 | 49 | 335 | 8.0 | 17.0 | 0.00 | 0.00 | 0.00 | 82 | 1004.5 |
| 20260906044536 | 49 | 330 | 8.0 | 16.0 | 0.00 | 0.00 | 0.00 | 83 | 1004.5 |
| 20260906043534 | 49 | 323 | 8.0 | 15.0 | 0.00 | 0.00 | 0.00 | 84 | 1004.4 |
| 20260906042533 | 49 | 322 | 8.0 | 18.0 | 0.00 | 0.00 | 0.00 | 85 | 1004.3 |
| 20260906041532 | 49 | 314 | 8.0 | 18.0 | 0.00 | 0.00 | 0.00 | 86 | 1004.1 |
| 20260906040531 | 48 | 316 | 7.0 | 15.0 | 0.00 | 0.00 | 0.00 | 88 | 1003.9 |
| 20260906035530 | 48 | 318 | 7.0 | 14.0 | 0.00 | 0.00 | 0.00 | 89 | 1003.8 |
| 20260906034529 | 48 | 318 | 6.0 | 13.0 | 0.00 | 0.00 | 0.00 | 91 | 1003.7 |
| 20260906033528 | 48 | 313 | 7.0 | 17.0 | 0.00 | 0.00 | 0.00 | 91 | 1003.5 |
| 20260906032527 | 48 | 311 | 6.0 | 15.0 | 0.00 | 0.00 | 0.00 | 92 | 1003.4 |
| 20260906031547 | 48 | 311 | 8.0 | 15.0 | 0.00 | 0.00 | 0.00 | 92 | 1003.4 |
| 20260906030545 | 48 | 308 | 7.0 | 14.0 | 0.00 | 0.00 | 0.00 | 93 | 1003.2 |
| 20260906025524 | 48 | 299 | 7.0 | 14.0 | 0.00 | 0.00 | 0.00 | 93 | 1003.1 |
| 20260906024523 | 48 | 302 | 6.0 | 14.0 | 0.00 | 0.00 | 0.00 | 93 | 1002.9 |
| 20260906023524 | 48 | 304 | 7.0 | 13.0 | 0.00 | 0.00 | 0.00 | 93 | 1002.8 |
| 20260906022522 | 48 | 307 | 6.0 | 12.0 | 0.00 | 0.00 | 0.00 | 93 | 1002.7 |
| 20260906021520 | 48 | 308 | 5.0 | 12.0 | 0.00 | 0.00 | 0.00 | 94 | 1002.7 |
| 20260906020520 | 48 | 309 | 6.0 | 12.0 | 0.00 | 0.00 | 0.00 | 93 | 1002.6 |
| 20260906015518 | 48 | 315 | 6.0 | 12.0 | 0.00 | 0.00 | 0.00 | 93 | 1002.4 |
| 20260906014518 | 47 | 317 | 5.0 | 12.0 | 0.00 | 0.00 | 0.00 | 93 | 1002.3 |
| 20260906013518 | 47 | 323 | 5.0 | 10.0 | 0.00 | 0.00 | 0.00 | 93 | 1002.2 |
| 20260906012537 | 47 | 323 | 5.0 | 10.0 | 0.00 | 0.00 | 0.00 | 93 | 1002.2 |
| 20260906011546 | 47 | 310 | 4.0 | 10.0 | 0.00 | 0.00 | 0.00 | 93 | 1002.1 |
| 20260906010545 | 47 | 322 | 5.0 | 11.0 | 0.00 | 0.00 | 0.00 | 93 | 1002.0 |
| 20260906005544 | 47 | 318 | 4.0 | 10.0 | 0.00 | 0.00 | 0.00 | 94 | 1001.9 |
| 20260906004543 | 48 | 318 | 5.0 | 11.0 | 0.00 | 0.00 | 0.00 | 93 | 1001.8 |
| 20260906003542 | 48 | 317 | 5.0 | 11.0 | 0.00 | 0.00 | 0.00 | 93 | 1001.7 |
| 20260906002541 | 48 | 313 | 5.0 | 10.0 | 0.00 | 0.00 | 0.00 | 93 | 1001.6 |
| 20260906001541 | 48 | 313 | 5.0 | 10.0 | 0.00 | 0.00 | 0.00 | 93 | 1001.5 |
| 20260906000539 | 49 | 313 | 5.0 | 9.0 | 0.00 | 0.00 | 0.00 | 93 | 1001.4 |
| 20260905235538 | 49 | 307 | 4.0 | 10.0 | 0.00 | 0.00 | 0.00 | 93 | 1001.2 |
| 20260905234538 | 49 | 311 | 5.0 | 10.0 | 0.00 | 0.00 | 0.00 | 93 | 1001.1 |
| 20260905233537 | 49 | 309 | 5.0 | 10.0 | 0.00 | 0.00 | 0.00 | 93 | 1001.1 |
| 20260905232535 | 49 | 310 | 5.0 | 9.0 | 0.00 | 0.00 | 0.00 | 92 | 1001.0 |
| 20260905231534 | 49 | 309 | 5.0 | 10.0 | 0.00 | 0.00 | 0.00 | 91 | 1000.9 |
| 20260905230533 | 50 | 314 | 5.0 | 12.0 | 0.00 | 0.00 | 0.00 | 90 | 1000.8 |
| 20260905225532 | 50 | 313 | 5.0 | 12.0 | 0.00 | 0.00 | 0.00 | 90 | 1000.7 |
| 20260905224532 | 50 | 310 | 4.0 | 10.0 | 0.00 | 0.00 | 0.00 | 90 | 1000.6 |
| 20260905223531 | 50 | 315 | 4.0 | 8.0 | 0.00 | 0.00 | 0.00 | 89 | 1000.6 |
| 20260905222529 | 50 | 321 | 5.0 | 11.0 | 0.00 | 0.00 | 0.00 | 89 | 1000.5 |
| 20260905221528 | 50 | 312 | 5.0 | 11.0 | 0.00 | 0.00 | 0.00 | 88 | 1000.4 |
| 20260905220527 | 50 | 323 | 5.0 | 9.0 | 0.00 | 0.00 | 0.00 | 88 | 1000.3 |
| 20260905215526 | 51 | 318 | 5.0 | 10.0 | 0.00 | 0.00 | 0.00 | 88 | 1000.3 |
| 20260905214525 | 51 | 319 | 5.0 | 11.0 | 0.00 | 0.00 | 0.00 | 88 | 1000.3 |
| 20260905213604 | 51 | 317 | 6.0 | 11.0 | 0.00 | 0.00 | 0.00 | 88 | 1000.2 |
| 20260905212523 | 51 | 324 | 4.0 | 9.0 | 0.00 | 0.00 | 0.00 | 89 | 1000.0 |
| 20260905211522 | 52 | 325 | 5.0 | 9.0 | 0.00 | 0.00 | 0.00 | 87 | 1000.0 |
| 20260905210521 | 52 | 325 | 5.0 | 10.0 | 0.00 | 0.00 | 0.00 | 86 | 999.9 |
| 20260905205520 | 52 | 324 | 5.0 | 10.0 | 0.00 | 0.00 | 0.00 | 85 | 999.8 |
| 20260905204539 | 52 | 320 | 4.0 | 10.0 | 0.00 | 0.00 | 0.00 | 85 | 999.6 |
| 20260905203518 | 52 | 315 | 4.0 | 9.0 | 0.00 | 0.00 | 0.00 | 85 | 999.5 |
| 20260905202517 | 53 | 316 | 5.0 | 11.0 | 0.00 | 0.00 | 0.00 | 85 | 999.5 |
| 20260905201516 | 53 | 315 | 5.0 | 11.0 | 0.00 | 0.00 | 0.00 | 84 | 999.4 |
| 20260905200545 | 53 | 320 | 5.0 | 9.0 | 0.00 | 0.00 | 0.00 | 85 | 999.2 |
| 20260905195605 | 53 | 319 | 5.0 | 10.0 | 0.00 | 0.00 | 0.00 | 85 | 999.2 |
| 20260905194544 | 54 | 326 | 4.0 | 10.0 | 0.00 | 0.00 | 0.00 | 85 | 999.1 |
| 20260905193543 | 54 | 317 | 5.0 | 10.0 | 0.00 | 0.00 | 0.00 | 84 | 999.0 |
| 20260905192602 | 54 | 322 | 5.0 | 10.0 | 0.00 | 0.00 | 0.00 | 83 | 999.0 |
| 20260905191541 | 55 | 318 | 4.0 | 9.0 | 0.00 | 0.00 | 0.00 | 83 | 998.9 |
| 20260905190540 | 55 | 317 | 5.0 | 9.0 | 0.00 | 0.00 | 0.00 | 82 | 998.8 |
| 20260905185538 | 55 | 316 | 5.0 | 10.0 | 0.00 | 0.00 | 0.00 | 81 | 998.7 |
| 20260905184538 | 56 | 317 | 5.0 | 10.0 | 0.00 | 0.00 | 0.00 | 80 | 998.7 |
| 20260905183537 | 56 | 307 | 6.0 | 12.0 | 0.00 | 0.00 | 0.00 | 78 | 998.6 |
| 20260905182535 | 57 | 306 | 4.0 | 10.0 | 0.00 | 0.00 | 0.00 | 78 | 998.5 |
| 20260905181555 | 57 | 299 | 3.0 | 9.0 | 0.00 | 0.00 | 0.00 | 76 | 998.4 |
| 20260905180553 | 57 | 292 | 4.0 | 8.0 | 0.00 | 0.00 | 0.00 | 74 | 998.4 |
| 20260905175532 | 58 | 301 | 4.0 | 8.0 | 0.00 | 0.00 | 0.00 | 73 | 998.3 |
| 20260905174532 | 58 | 299 | 4.0 | 9.0 | 0.00 | 0.00 | 0.00 | 72 | 998.2 |
| 20260905173531 | 58 | 304 | 4.0 | 9.0 | 0.00 | 0.00 | 0.00 | 71 | 998.2 |
| 20260905172530 | 58 | 292 | 4.0 | 8.0 | 0.00 | 0.00 | 0.00 | 70 | 998.1 |
| 20260905171529 | 59 | 294 | 3.0 | 8.0 | 0.00 | 0.00 | 0.00 | 70 | 997.9 |
| 20260905170528 | 58 | 296 | 3.0 | 8.0 | 0.00 | 0.00 | 0.00 | 69 | 997.7 |
| 20260905165527 | 59 | 292 | 2.0 | 6.0 | 0.00 | 0.00 | 0.00 | 69 | 997.6 |
| 20260905164526 | 59 | 285 | 3.0 | 6.0 | 0.00 | 0.00 | 0.00 | 68 | 997.5 |
| 20260905163525 | 59 | 292 | 3.0 | 8.0 | 0.00 | 0.00 | 0.00 | 66 | 997.4 |
| 20260905162526 | 59 | 313 | 4.0 | 8.0 | 0.00 | 0.00 | 0.00 | 64 | 997.3 |
| 20260905161524 | 59 | 320 | 4.0 | 9.0 | 0.00 | 0.00 | 0.00 | 64 | 997.3 |
| 20260905160524 | 60 | 319 | 5.0 | 12.0 | 0.00 | 0.00 | 0.00 | 62 | 997.2 |
| 20260905155523 | 60 | 315 | 5.0 | 12.0 | 0.00 | 0.00 | 0.00 | 60 | 997.0 |
| 20260905154522 | 61 | 300 | 4.0 | 7.0 | 0.00 | 0.00 | 0.00 | 62 | 996.9 |
| 20260905153522 | 62 | 294 | 3.0 | 7.0 | 0.00 | 0.00 | 0.00 | 60 | 996.9 |
| 20260905152539 | 61 | 298 | 3.0 | 6.0 | 0.00 | 0.00 | 0.00 | 61 | 996.8 |
| 20260905151520 | 60 | 300 | 3.0 | 6.0 | 0.00 | 0.00 | 0.00 | 63 | 996.8 |
| 20260905150518 | 60 | 311 | 4.0 | 7.0 | 0.00 | 0.00 | 0.00 | 63 | 996.7 |
| 20260905145546 | 60 | 322 | 4.0 | 7.0 | 0.00 | 0.00 | 0.00 | 62 | 996.6 |
| 20260905144545 | 61 | 329 | 5.0 | 8.0 | 0.00 | 0.00 | 0.00 | 61 | 996.6 |
| 20260905143604 | 61 | 323 | 4.0 | 8.0 | 0.00 | 0.00 | 0.00 | 62 | 996.5 |
| 20260905142603 | 61 | 308 | 3.0 | 6.0 | 0.00 | 0.00 | 0.00 | 63 | 996.4 |
| 20260905141542 | 61 | 314 | 4.0 | 9.0 | 0.00 | 0.00 | 0.00 | 61 | 996.3 |
| 20260905140541 | 60 | 310 | 4.0 | 8.0 | 0.00 | 0.00 | 0.00 | 60 | 996.3 |
| 20260905135540 | 60 | 314 | 5.0 | 10.0 | 0.00 | 0.00 | 0.00 | 59 | 996.2 |
| 20260905134600 | 61 | 306 | 5.0 | 11.0 | 0.00 | 0.00 | 0.00 | 58 | 996.1 |
| 20260905133558 | 62 | 304 | 7.0 | 11.0 | 0.00 | 0.00 | 0.00 | 55 | 996.0 |
| 20260905132539 | 63 | 312 | 5.0 | 11.0 | 0.00 | 0.00 | 0.00 | 54 | 995.9 |
| 20260905131556 | 62 | 291 | 6.0 | 11.0 | 0.00 | 0.00 | 0.00 | 55 | 995.9 |
| 20260905130535 | 62 | 283 | 7.0 | 13.0 | 0.00 | 0.00 | 0.00 | 55 | 995.8 |
| 20260905125535 | 64 | 273 | 7.0 | 13.0 | 0.00 | 0.00 | 0.00 | 51 | 995.7 |
| 20260905124535 | 63 | 272 | 6.0 | 10.0 | 0.00 | 0.00 | 0.00 | 50 | 995.7 |
| 20260905123532 | 64 | 275 | 5.0 | 10.0 | 0.00 | 0.00 | 0.00 | 51 | 995.7 |
| 20260905122553 | 63 | 290 | 6.0 | 12.0 | 0.00 | 0.00 | 0.00 | 51 | 995.7 |
| 20260905121551 | 61 | 300 | 6.0 | 12.0 | 0.00 | 0.00 | 0.00 | 54 | 995.7 |
| 20260905120531 | 62 | 303 | 6.0 | 11.0 | 0.00 | 0.00 | 0.00 | 55 | 995.5 |
| 20260905115530 | 64 | 287 | 6.0 | 11.0 | 0.00 | 0.00 | 0.00 | 51 | 995.5 |
| 20260905114527 | 64 | 275 | 6.0 | 12.0 | 0.00 | 0.00 | 0.00 | 49 | 995.4 |
| 20260905113546 | 62 | 282 | 7.0 | 12.0 | 0.00 | 0.00 | 0.00 | 54 | 995.4 |
| 20260905112525 | 62 | 289 | 6.0 | 11.0 | 0.00 | 0.00 | 0.00 | 60 | 995.4 |
| 20260905111524 | 63 | 237 | 6.0 | 11.0 | 0.00 | 0.00 | 0.00 | 57 | 995.3 |
| 20260905110523 | 61 | 241 | 6.0 | 10.0 | 0.00 | 0.00 | 0.00 | 63 | 995.2 |
| 20260905105522 | 62 | 241 | 6.0 | 9.0 | 0.00 | 0.00 | 0.00 | 60 | 995.1 |
| 20260905104521 | 63 | 258 | 5.0 | 8.0 | 0.00 | 0.00 | 0.00 | 60 | 995.0 |
| 20260905103522 | 61 | 296 | 4.0 | 8.0 | 0.00 | 0.00 | 0.00 | 65 | 995.0 |
| 20260905102521 | 61 | 318 | 5.0 | 9.0 | 0.00 | 0.00 | 0.00 | 65 | 994.9 |
| 20260905101520 | 63 | 314 | 3.0 | 8.0 | 0.00 | 0.00 | 0.00 | 64 | 994.8 |
| 20260905100520 | 61 | 293 | 4.0 | 8.0 | 0.00 | 0.00 | 0.00 | 66 | 994.8 |
| 20260905095517 | 61 | 262 | 4.0 | 8.0 | 0.00 | 0.00 | 0.00 | 67 | 994.7 |
| 20260905094547 | 60 | 293 | 4.0 | 8.0 | 0.00 | 0.00 | 0.00 | 72 | 994.7 |
| 20260905093545 | 59 | 291 | 4.0 | 7.0 | 0.00 | 0.00 | 0.00 | 76 | 994.7 |
| 20260905092546 | 58 | 285 | 4.0 | 7.0 | 0.00 | 0.00 | 0.00 | 80 | 994.7 |
| 20260905091544 | 58 | 277 | 4.0 | 7.0 | 0.00 | 0.00 | 0.00 | 82 | 994.6 |
| 20260905090543 | 57 | 301 | 4.0 | 7.0 | 0.00 | 0.00 | 0.00 | 85 | 994.6 |
| 20260905085601 | 56 | 296 | 4.0 | 6.0 | 0.00 | 0.00 | 0.00 | 86 | 994.5 |
| 20260905084541 | 56 | 304 | 4.0 | 6.0 | 0.00 | 0.00 | 0.00 | 89 | 994.5 |
| 20260905083600 | 54 | 303 | 4.0 | 6.0 | 0.00 | 0.01 | 0.00 | 91 | 994.4 |
| 20260905082539 | 53 | 315 | 4.0 | 5.0 | 0.00 | 0.01 | 0.00 | 94 | 994.4 |
| 20260905081538 | 52 | 293 | 4.0 | 5.0 | 0.00 | 0.01 | 0.00 | 97 | 994.4 |
| 20260905080557 | 52 | 314 | 3.0 | 5.0 | 0.00 | 0.01 | 0.00 | 98 | 994.4 |
| 20260905075536 | 51 | 291 | 3.0 | 4.0 | 0.00 | 0.00 | 0.00 | 98 | 994.3 |
| 20260905074615 | 51 | 297 | 3.0 | 5.0 | 0.00 | 0.00 | 0.00 | 99 | 994.3 |
| 20260905073534 | 50 | 292 | 2.0 | 5.0 | 0.00 | 0.00 | 0.00 | 99 | 994.3 |
| 20260905072553 | 50 | 306 | 2.0 | 4.0 | 0.00 | 0.00 | 0.00 | 99 | 994.2 |
| 20260905071612 | 49 | 289 | 3.0 | 6.0 | 0.00 | 0.00 | 0.00 | 99 | 994.1 |
| 20260905070531 | 49 | 308 | 4.0 | 6.0 | 0.00 | 0.00 | 0.00 | 99 | 994.0 |
| 20260905065530 | 49 | 323 | 3.0 | 6.0 | 0.00 | 0.00 | 0.00 | 98 | 994.0 |
| 20260905064530 | 49 | 315 | 3.0 | 5.0 | 0.00 | 0.00 | 0.00 | 98 | 993.9 |
| 20260905063528 | 48 | 310 | 5.0 | 7.0 | 0.00 | 0.00 | 0.00 | 98 | 993.9 |
| 20260905062546 | 48 | 314 | 4.0 | 7.0 | 0.00 | 0.00 | 0.00 | 98 | 993.7 |
| 20260905061525 | 48 | 304 | 3.0 | 5.0 | 0.00 | 0.00 | 0.00 | 98 | 993.7 |
| 20260905060525 | 47 | 307 | 3.0 | 5.0 | 0.00 | 0.00 | 0.00 | 98 | 993.7 |
| 20260905055523 | 47 | 308 | 3.0 | 6.0 | 0.00 | 0.00 | 0.00 | 98 | 993.7 |
| 20260905054522 | 47 | 313 | 4.0 | 6.0 | 0.00 | 0.00 | 0.00 | 98 | 993.6 |
| 20260905053521 | 47 | 301 | 3.0 | 6.0 | 0.00 | 0.00 | 0.00 | 98 | 993.6 |
| 20260905052522 | 47 | 314 | 4.0 | 6.0 | 0.00 | 0.00 | 0.00 | 98 | 993.6 |